Hourly Weather Roundup
Issued by NWS Central Illinois

Home | Current Version | Previous Version | Text Only | Print | Product List | Glossary On
Versions: 1 2 3 4 5 6 7 8 9 10 11 12 13 14 15 16 17 18 19 20 21 22 23 24 25 26 27 28 29 30 31 32 33 34 35 36 37 38 39 40 41 42 43 44 45 46 47 48 49 50
000
NZUS43 KILX 260910
HWRILX

AREA WEATHER ROUNDUP
NATIONAL WEATHER SERVICE, LINCOLN IL
300 AM CST SUN FEB 26 2017


CITY           SKY/WX    TMP DP  RH WIND       PRES   REMARKS
BLOOMINGTON    CLEAR     19  15  84 S7        30.07F WCI  10
CHAMPAIGN      CLEAR     18  12  77 S6        30.09F WCI  10
DECATUR        CLEAR     20  12  71 S3        30.09F
EFFINGHAM      CLEAR     21  19  92 CALM      30.15R
FLORA          PTCLDY    23  18  83 CALM      30.15S
GALESBURG      CLOUDY    26  20  77 SE7       30.01F WCI  18
JACKSONVILLE   CLOUDY    28  13  53 S7        30.07F WCI  20
LACON          CLOUDY    25  18  75 S6        30.04F WCI  18
LAWRENCEVILLE  PTCLDY    24  18  77 SE3       30.15F
LITCHFIELD     PTCLDY    22  15  74 S6        30.10S WCI  14
$$


CITY           SKY/WX    TMP DP  RH WIND       PRES   REMARKS
LINCOLN        CLEAR     21  16  78 S3        30.08F
MACOMB         MOCLDY    26  19  76 S8        30.05F WCI  18
MATTOON        CLEAR     23  15  71 CALM      30.10F
MT CARMEL AP   CLEAR     22  19  85 CALM      30.15S
OLNEY-NOBLE AP CLEAR     23  21  93 CALM      30.15S
PARIS          CLEAR     19  15  83 SW3       30.13S
PEORIA         CLOUDY    25  17  72 S7        30.05F WCI  17
PONTIAC        CLEAR     24  20  85 S5        30.07F WCI  18
RANTOUL        PTCLDY    22  18  83 CALM      30.09S
SPRINGFIELD    PTCLDY    23  14  68 SE5       30.08F WCI  17
TAYLORVILLE    CLEAR     19  15  84 SE5       30.09F WCI  12
$$

...REGIONAL REPORTS...


CITY           SKY/WX    TMP DP  RH WIND       PRES   REMARKS
CHICAGO O`HARE CLOUDY    24  17  74 S6        30.03F WCI  17
KANKAKEE       CLOUDY    23  19  84 CALM      30.09S
MOLINE         CLOUDY    29  17  61 S9        29.99F WCI  20
MOUNT STERLING CLOUDY    26  15  63 S10       30.04S WCI  17
MOUNT VERNON   CLEAR     17  16  95 CALM      30.15S
PITTSFIELD     CLEAR     27  16  64 S8        30.06F WCI  18
QUINCY         CLEAR     29  14  53 S10       30.03F WCI  20
ROCKFORD       CLOUDY    26  19  74 S8        30.01F WCI  18
$$


CITY           SKY/WX    TMP DP  RH WIND       PRES   REMARKS
BURLINGTON     CLOUDY    30  17  58 S10       30.00F WCI  21
CEDAR RAPIDS   CLOUDY    28  19  69 S13       29.91F WCI  17
DES MOINES     PTCLDY    31  17  56 S13       29.87F WCI  21
KIRKSVILLE     CLOUDY    29  13  51 S8        29.98F WCI  21
OTTUMWA        CLOUDY    30  16  56 S14       29.93F WCI  19
ST LOUIS       CLEAR     32  14  47 S8        30.11S WCI  25
$$


CITY           SKY/WX    TMP DP  RH WIND       PRES   REMARKS
TERRE HAUTE    CLEAR     23  16  74 CALM      30.13S
EVANSVILLE     CLEAR     27  16  63 CALM      30.17R
INDIANAPOLIS   CLEAR     21  15  78 W5        30.11R WCI  15
LAFAYETTE      CLEAR     20  17  88 CALM      30.11S
MADISON        CLOUDY    22  16  78 S7        29.93F WCI  13
MILWAUKEE      MOCLDY    23  14  68 SW6       29.99S WCI  16
$$





USA.gov is the U.S. government's official web portal to all federal, state and local government web resources and services.